| time (UTC) | temp C | wind direction | speed KPH | gust KPH | rain 1hr cm | rain 24hr cm | rain mn cm | humidity % | barometer mb |
| 20260503013735 | 27 | 70 | 0.0 | 0.0 | 0.00 | 0.00 | 0.00 | 77 | 1016.0 |
| 20260503013232 | 27 | 60 | 1.6 | 1.6 | 0.00 | 0.00 | 0.00 | 76 | 1015.7 |
| 20260503012730 | 27 | 59 | 0.0 | 0.0 | 0.00 | 0.00 | 0.00 | 76 | 1015.9 |
| 20260503012227 | 27 | 10 | 3.2 | 3.2 | 0.00 | 0.00 | 0.00 | 76 | 1015.8 |
| 20260503011723 | 27 | 29 | 1.6 | 1.6 | 0.00 | 0.00 | 0.00 | 76 | 1016.0 |
| 20260503011220 | 27 | 39 | 0.0 | 1.6 | 0.00 | 0.00 | 0.00 | 77 | 1015.6 |
| 20260503010716 | 27 | 110 | 0.0 | 0.0 | 0.00 | 0.00 | 0.00 | 76 | 1015.6 |
| 20260503010214 | 27 | 110 | 0.0 | 0.0 | 0.00 | 0.00 | 0.00 | 76 | 1015.7 |
| 20260503005711 | 27 | 111 | 0.0 | 0.0 | 0.00 | 0.00 | 0.00 | 76 | 1015.5 |
| 20260503005208 | 27 | 111 | 0.0 | 0.0 | 0.00 | 0.00 | 0.00 | 76 | 1015.6 |
| 20260503004704 | 27 | 111 | 0.0 | 0.0 | 0.00 | 0.00 | 0.00 | 76 | 1015.4 |
| 20260503004203 | 27 | 111 | 0.0 | 0.0 | 0.00 | 0.00 | 0.00 | 76 | 1015.5 |
| 20260503003700 | 27 | 111 | 0.0 | 1.6 | 0.00 | 0.00 | 0.00 | 77 | 1015.2 |
| 20260503003156 | 27 | 111 | 0.0 | 0.0 | 0.00 | 0.00 | 0.00 | 76 | 1015.2 |
| 20260503002653 | 27 | 111 | 0.0 | 0.0 | 0.00 | 0.00 | 0.00 | 76 | 1015.1 |
| 20260503002150 | 27 | 116 | 0.0 | 1.6 | 0.00 | 0.00 | 0.00 | 76 | 1015.0 |
| 20260503001646 | 27 | 173 | 3.2 | 3.2 | 0.00 | 0.00 | 0.00 | 76 | 1014.9 |
| 20260503001143 | 27 | 122 | 1.6 | 1.6 | 0.00 | 0.00 | 0.00 | 76 | 1014.9 |
| 20260503000641 | 27 | 132 | 3.2 | 3.2 | 0.00 | 0.00 | 0.00 | 76 | 1014.8 |
| 20260503000138 | 27 | 131 | 1.6 | 1.6 | 0.00 | 0.00 | 0.00 | 75 | 1014.9 |
| 20260502235634 | 28 | 131 | 0.0 | 1.6 | 0.00 | 0.00 | 0.00 | 75 | 1014.9 |
| 20260502235133 | 28 | 119 | 0.0 | 0.0 | 0.00 | 0.00 | 0.00 | 75 | 1014.5 |
| 20260502234628 | 28 | 129 | 1.6 | 1.6 | 0.00 | 0.00 | 0.00 | 74 | 1014.7 |
| 20260502234126 | 28 | 150 | 1.6 | 1.6 | 0.00 | 0.00 | 0.00 | 73 | 1014.6 |
| 20260502233621 | 28 | 103 | 0.0 | 0.0 | 0.00 | 0.00 | 0.00 | 73 | 1014.6 |
| 20260502233118 | 29 | 95 | 0.0 | 0.0 | 0.00 | 0.00 | 0.00 | 73 | 1014.5 |
| 20260502232614 | 29 | 110 | 1.6 | 1.6 | 0.00 | 0.00 | 0.00 | 72 | 1014.6 |
| 20260502232112 | 29 | 130 | 0.0 | 0.0 | 0.00 | 0.00 | 0.00 | 72 | 1014.4 |
| 20260502231608 | 29 | 105 | 0.0 | 0.0 | 0.00 | 0.00 | 0.00 | 72 | 1014.3 |
| 20260502231106 | 29 | 186 | 1.6 | 3.2 | 0.00 | 0.00 | 0.00 | 73 | 1014.3 |
| 20260502230604 | 29 | 117 | 1.6 | 1.6 | 0.00 | 0.00 | 0.00 | 72 | 1014.3 |
| 20260502225558 | 30 | 151 | 3.2 | 3.2 | 0.00 | 0.00 | 0.00 | 69 | 1014.1 |
| 20260502225055 | 30 | 130 | 3.2 | 4.8 | 0.00 | 0.00 | 0.00 | 70 | 1014.0 |
| 20260502224551 | 30 | 121 | 3.2 | 3.2 | 0.00 | 0.00 | 0.00 | 71 | 1013.9 |
| 20260502224048 | 29 | 170 | 3.2 | 3.2 | 0.00 | 0.00 | 0.00 | 71 | 1013.9 |
| 20260502223546 | 30 | 171 | 1.6 | 4.8 | 0.00 | 0.00 | 0.00 | 72 | 1013.7 |
| 20260502223044 | 30 | 210 | 3.2 | 9.7 | 0.00 | 0.00 | 0.00 | 70 | 1014.0 |
| 20260502222541 | 30 | 89 | 0.0 | 0.0 | 0.00 | 0.00 | 0.00 | 70 | 1013.8 |
| 20260502222037 | 30 | 108 | 1.6 | 1.6 | 0.00 | 0.00 | 0.00 | 68 | 1013.8 |
| 20260502221533 | 31 | 178 | 4.8 | 4.8 | 0.00 | 0.00 | 0.00 | 68 | 1013.9 |
| 20260502221031 | 30 | 81 | 0.0 | 1.6 | 0.00 | 0.00 | 0.00 | 69 | 1013.8 |
| 20260502220526 | 30 | 128 | 1.6 | 1.6 | 0.00 | 0.00 | 0.00 | 69 | 1013.7 |
| 20260502220023 | 30 | 164 | 3.2 | 3.2 | 0.00 | 0.00 | 0.00 | 68 | 1013.6 |
| 20260502215520 | 30 | 188 | 3.2 | 4.8 | 0.00 | 0.00 | 0.00 | 68 | 1013.8 |
| 20260502215017 | 30 | 68 | 0.0 | 1.6 | 0.00 | 0.00 | 0.00 | 69 | 1013.8 |
| 20260502214514 | 30 | 254 | 1.6 | 3.2 | 0.00 | 0.00 | 0.00 | 70 | 1013.8 |
| 20260502214012 | 30 | 121 | 4.8 | 4.8 | 0.00 | 0.00 | 0.00 | 68 | 1013.7 |
| 20260502213508 | 30 | 245 | 3.2 | 3.2 | 0.00 | 0.00 | 0.00 | 69 | 1013.7 |
| 20260502213007 | 30 | 144 | 3.2 | 3.2 | 0.00 | 0.00 | 0.00 | 70 | 1013.7 |
| 20260502212505 | 30 | 142 | 4.8 | 4.8 | 0.00 | 0.00 | 0.00 | 70 | 1013.7 |
| 20260502212002 | 30 | 168 | 4.8 | 4.8 | 0.00 | 0.00 | 0.00 | 71 | 1013.6 |
| 20260502211457 | 30 | 173 | 6.4 | 8.0 | 0.00 | 0.00 | 0.00 | 71 | 1013.6 |
| 20260502210955 | 29 | 189 | 3.2 | 3.2 | 0.00 | 0.00 | 0.00 | 72 | 1013.3 |
| 20260502210451 | 29 | 167 | 8.0 | 9.7 | 0.00 | 0.00 | 0.00 | 71 | 1013.1 |
| 20260502205949 | 30 | 127 | 6.4 | 9.7 | 0.00 | 0.00 | 0.00 | 71 | 1013.1 |
| 20260502205445 | 30 | 146 | 8.0 | 9.7 | 0.00 | 0.00 | 0.00 | 71 | 1013.1 |
| 20260502204942 | 30 | 200 | 4.8 | 4.8 | 0.00 | 0.00 | 0.00 | 71 | 1013.2 |
| 20260502204439 | 30 | 216 | 6.4 | 9.7 | 0.00 | 0.00 | 0.00 | 70 | 1013.2 |
| 20260502203937 | 30 | 255 | 6.4 | 9.7 | 0.00 | 0.00 | 0.00 | 70 | 1013.5 |
| 20260502203434 | 30 | 173 | 3.2 | 4.8 | 0.00 | 0.00 | 0.00 | 70 | 1013.6 |
| 20260502202930 | 30 | 113 | 3.2 | 3.2 | 0.00 | 0.00 | 0.00 | 71 | 1013.9 |
| 20260502202427 | 30 | 209 | 6.4 | 8.0 | 0.00 | 0.00 | 0.00 | 70 | 1013.6 |
| 20260502201925 | 30 | 111 | 3.2 | 4.8 | 0.00 | 0.00 | 0.00 | 71 | 1013.7 |
| 20260502201421 | 30 | 232 | 3.2 | 4.8 | 0.00 | 0.00 | 0.00 | 71 | 1013.9 |
| 20260502200918 | 30 | 179 | 3.2 | 4.8 | 0.00 | 0.00 | 0.00 | 70 | 1014.1 |
| 20260502200413 | 30 | 124 | 3.2 | 3.2 | 0.00 | 0.00 | 0.00 | 70 | 1013.9 |
| 20260502195912 | 30 | 113 | 1.6 | 1.6 | 0.00 | 0.00 | 0.00 | 71 | 1014.1 |
| 20260502195408 | 30 | 183 | 4.8 | 8.0 | 0.00 | 0.00 | 0.00 | 70 | 1014.2 |
| 20260502194905 | 30 | 180 | 3.2 | 3.2 | 0.00 | 0.00 | 0.00 | 70 | 1014.2 |
| 20260502194402 | 30 | 220 | 3.2 | 4.8 | 0.00 | 0.00 | 0.00 | 71 | 1014.2 |
| 20260502193857 | 30 | 141 | 1.6 | 1.6 | 0.00 | 0.00 | 0.00 | 72 | 1014.0 |
| 20260502193355 | 30 | 156 | 3.2 | 4.8 | 0.00 | 0.00 | 0.00 | 73 | 1014.3 |
| 20260502192850 | 30 | 216 | 8.0 | 9.7 | 0.00 | 0.00 | 0.00 | 72 | 1014.4 |
| 20260502192347 | 30 | 343 | 3.2 | 3.2 | 0.00 | 0.00 | 0.00 | 71 | 1014.4 |
| 20260502191844 | 31 | 232 | 4.8 | 4.8 | 0.00 | 0.00 | 0.00 | 70 | 1014.6 |
| 20260502191343 | 30 | 129 | 4.8 | 8.0 | 0.00 | 0.00 | 0.00 | 73 | 1014.7 |
| 20260502190839 | 30 | 205 | 4.8 | 8.0 | 0.00 | 0.00 | 0.00 | 74 | 1014.9 |
| 20260502190337 | 29 | 188 | 4.8 | 9.7 | 0.00 | 0.00 | 0.00 | 76 | 1014.7 |
| 20260502185832 | 29 | 267 | 9.7 | 11.3 | 0.00 | 0.00 | 0.00 | 74 | 1015.0 |
| 20260502185328 | 30 | 165 | 6.4 | 9.7 | 0.00 | 0.00 | 0.00 | 73 | 1014.7 |
| 20260502184826 | 30 | 195 | 4.8 | 8.0 | 0.00 | 0.00 | 0.00 | 74 | 1014.6 |
| 20260502184321 | 30 | 163 | 1.6 | 1.6 | 0.00 | 0.00 | 0.00 | 73 | 1014.9 |
| 20260502183818 | 30 | 74 | 4.8 | 8.0 | 0.00 | 0.00 | 0.00 | 74 | 1014.7 |
| 20260502183314 | 30 | 166 | 6.4 | 9.7 | 0.00 | 0.00 | 0.00 | 74 | 1014.8 |
| 20260502182809 | 30 | 214 | 9.7 | 11.3 | 0.00 | 0.00 | 0.00 | 73 | 1015.0 |
| 20260502182305 | 30 | 144 | 3.2 | 4.8 | 0.00 | 0.00 | 0.00 | 75 | 1014.9 |
| 20260502181802 | 30 | 211 | 8.0 | 11.3 | 0.00 | 0.00 | 0.00 | 74 | 1014.9 |
| 20260502181301 | 30 | 188 | 6.4 | 9.7 | 0.00 | 0.00 | 0.00 | 74 | 1014.8 |
| 20260502180758 | 29 | 177 | 3.2 | 4.8 | 0.00 | 0.00 | 0.00 | 75 | 1014.9 |
| 20260502180255 | 29 | 180 | 6.4 | 9.7 | 0.00 | 0.00 | 0.00 | 75 | 1014.8 |
| 20260502170214 | 29 | 173 | 4.8 | 8.0 | 0.00 | 0.00 | 0.00 | 77 | 1015.0 |
| 20260502164201 | 28 | 181 | 11.3 | 12.9 | 0.00 | 0.00 | 0.00 | 76 | 1015.2 |
| 20260502163656 | 29 | 156 | 8.0 | 11.3 | 0.00 | 0.00 | 0.00 | 76 | 1015.1 |
| 20260502163153 | 29 | 198 | 8.0 | 11.3 | 0.00 | 0.00 | 0.00 | 76 | 1015.2 |
| 20260502162650 | 29 | 129 | 8.0 | 12.9 | 0.00 | 0.00 | 0.00 | 76 | 1015.2 |
| 20260502162147 | 28 | 246 | 12.9 | 16.1 | 0.00 | 0.00 | 0.00 | 76 | 1015.5 |
| 20260502161644 | 29 | 207 | 6.4 | 11.3 | 0.00 | 0.00 | 0.00 | 76 | 1015.4 |
| 20260502161141 | 29 | 182 | 8.0 | 9.7 | 0.00 | 0.00 | 0.00 | 75 | 1015.4 |
| 20260502160639 | 29 | 89 | 9.7 | 11.3 | 0.00 | 0.00 | 0.00 | 75 | 1015.0 |
| 20260502160138 | 29 | 145 | 6.4 | 8.0 | 0.00 | 0.00 | 0.00 | 76 | 1015.2 |
| 20260502152051 | 29 | 189 | 9.7 | 12.9 | 0.00 | 0.00 | 0.00 | 76 | 1015.1 |
| 20260502151549 | 29 | 191 | 11.3 | 12.9 | 0.00 | 0.00 | 0.00 | 75 | 1015.0 |
| 20260502151046 | 28 | 156 | 4.8 | 9.7 | 0.00 | 0.00 | 0.00 | 77 | 1015.1 |
| 20260502150543 | 28 | 117 | 6.4 | 11.3 | 0.00 | 0.00 | 0.00 | 76 | 1015.3 |
| 20260502130428 | 28 | 210 | 8.0 | 12.9 | 0.00 | 0.00 | 0.00 | 78 | 1014.6 |
| 20260502123411 | 27 | 210 | 9.7 | 12.9 | 0.00 | 0.00 | 0.00 | 80 | 1014.4 |
| 20260502122908 | 27 | 207 | 14.5 | 16.1 | 0.00 | 0.00 | 0.00 | 80 | 1014.2 |
| 20260502122404 | 27 | 133 | 6.4 | 11.3 | 0.00 | 0.00 | 0.00 | 80 | 1014.5 |
| 20260502121903 | 27 | 202 | 9.7 | 12.9 | 0.00 | 0.00 | 0.00 | 80 | 1014.3 |
| 20260502121359 | 27 | 221 | 12.9 | 16.1 | 0.00 | 0.00 | 0.00 | 80 | 1014.2 |
| 20260502120857 | 27 | 230 | 9.7 | 11.3 | 0.00 | 0.00 | 0.00 | 80 | 1014.5 |
| 20260502120353 | 27 | 207 | 8.0 | 9.7 | 0.00 | 0.00 | 0.00 | 81 | 1014.3 |
| 20260502115850 | 27 | 155 | 9.7 | 16.1 | 0.00 | 0.00 | 0.00 | 81 | 1014.5 |
| 20260502115347 | 27 | 191 | 9.7 | 11.3 | 0.00 | 0.00 | 0.00 | 81 | 1014.4 |
| 20260502114843 | 27 | 287 | 8.0 | 11.3 | 0.00 | 0.00 | 0.00 | 81 | 1014.3 |
| 20260502114340 | 27 | 174 | 4.8 | 8.0 | 0.00 | 0.00 | 0.00 | 82 | 1014.4 |
| 20260502113837 | 27 | 158 | 12.9 | 14.5 | 0.00 | 0.00 | 0.00 | 82 | 1014.2 |
| 20260502113335 | 27 | 168 | 8.0 | 11.3 | 0.00 | 0.00 | 0.00 | 82 | 1014.3 |
| 20260502112833 | 26 | 148 | 12.9 | 14.5 | 0.00 | 0.00 | 0.00 | 82 | 1014.2 |
| 20260502112330 | 26 | 180 | 9.7 | 16.1 | 0.00 | 0.00 | 0.00 | 82 | 1014.4 |
| 20260502111828 | 26 | 161 | 9.7 | 11.3 | 0.00 | 0.00 | 0.00 | 82 | 1014.2 |
| 20260502111325 | 26 | 194 | 11.3 | 16.1 | 0.00 | 0.00 | 0.00 | 82 | 1014.2 |
| 20260502110823 | 26 | 171 | 8.0 | 14.5 | 0.00 | 0.00 | 0.00 | 82 | 1014.2 |
| 20260502110320 | 26 | 159 | 4.8 | 8.0 | 0.00 | 0.00 | 0.00 | 82 | 1014.1 |
| 20260502105818 | 26 | 149 | 6.4 | 9.7 | 0.00 | 0.00 | 0.00 | 82 | 1014.2 |
| 20260502105314 | 26 | 145 | 14.5 | 16.1 | 0.00 | 0.00 | 0.00 | 82 | 1014.1 |
| 20260502104812 | 26 | 200 | 9.7 | 16.1 | 0.00 | 0.00 | 0.00 | 83 | 1014.0 |
| 20260502104309 | 26 | 179 | 12.9 | 17.7 | 0.00 | 0.00 | 0.00 | 83 | 1014.1 |
| 20260502103806 | 26 | 151 | 6.4 | 8.0 | 0.00 | 0.00 | 0.00 | 85 | 1013.9 |
| 20260502103304 | 26 | 147 | 4.8 | 8.0 | 0.00 | 0.00 | 0.00 | 85 | 1014.0 |
| 20260502102801 | 27 | 107 | 11.3 | 17.7 | 0.00 | 0.00 | 0.00 | 85 | 1013.8 |
| 20260502102257 | 27 | 139 | 11.3 | 14.5 | 0.00 | 0.00 | 0.00 | 85 | 1013.9 |
| 20260502101755 | 27 | 120 | 6.4 | 8.0 | 0.00 | 0.00 | 0.00 | 85 | 1013.9 |
| 20260502101253 | 27 | 172 | 8.0 | 12.9 | 0.00 | 0.00 | 0.00 | 84 | 1013.9 |
| 20260502100751 | 27 | 126 | 8.0 | 9.7 | 0.00 | 0.00 | 0.00 | 84 | 1013.8 |
| 20260502100249 | 27 | 150 | 8.0 | 12.9 | 0.00 | 0.00 | 0.00 | 83 | 1013.8 |
| 20260502091224 | 27 | 136 | 9.7 | 12.9 | 0.00 | 0.00 | 0.00 | 79 | 1013.9 |
| 20260502090721 | 27 | 156 | 14.5 | 17.7 | 0.00 | 0.00 | 0.00 | 79 | 1013.9 |
| 20260502090218 | 27 | 160 | 14.5 | 17.7 | 0.00 | 0.00 | 0.00 | 79 | 1013.8 |
| 20260502071113 | 27 | 135 | 6.4 | 8.0 | 0.00 | 0.00 | 0.00 | 81 | 1014.0 |
| 20260502070611 | 27 | 160 | 12.9 | 16.1 | 0.00 | 0.00 | 0.00 | 81 | 1014.0 |
| 20260502070109 | 27 | 134 | 9.7 | 12.9 | 0.00 | 0.00 | 0.00 | 81 | 1014.1 |
| 20260502065607 | 27 | 181 | 6.4 | 12.9 | 0.00 | 0.00 | 0.00 | 82 | 1013.9 |
| 20260502065104 | 27 | 138 | 8.0 | 11.3 | 0.00 | 0.00 | 0.00 | 82 | 1014.3 |
| 20260502064603 | 27 | 156 | 9.7 | 16.1 | 0.00 | 0.00 | 0.00 | 82 | 1014.2 |
| 20260502064100 | 27 | 140 | 14.5 | 16.1 | 0.00 | 0.00 | 0.00 | 82 | 1013.9 |
| 20260502063557 | 27 | 196 | 8.0 | 11.3 | 0.00 | 0.00 | 0.00 | 82 | 1014.0 |
| 20260502063055 | 27 | 139 | 9.7 | 12.9 | 0.00 | 0.00 | 0.00 | 82 | 1014.0 |
| 20260502062552 | 27 | 189 | 1.6 | 4.8 | 0.00 | 0.00 | 0.00 | 82 | 1013.9 |
| 20260502062050 | 27 | 116 | 8.0 | 12.9 | 0.00 | 0.00 | 0.00 | 81 | 1014.1 |
| 20260502061547 | 27 | 221 | 11.3 | 11.3 | 0.00 | 0.00 | 0.00 | 82 | 1014.0 |
| 20260502061044 | 27 | 155 | 9.7 | 12.9 | 0.00 | 0.00 | 0.00 | 81 | 1013.9 |
| 20260502060539 | 27 | 205 | 8.0 | 12.9 | 0.00 | 0.00 | 0.00 | 81 | 1014.0 |
| 20260502060037 | 27 | 183 | 4.8 | 8.0 | 0.00 | 0.00 | 0.00 | 81 | 1014.2 |
| 20260502055534 | 27 | 189 | 11.3 | 16.1 | 0.00 | 0.00 | 0.00 | 81 | 1014.1 |
| 20260502055033 | 27 | 128 | 14.5 | 16.1 | 0.00 | 0.00 | 0.00 | 81 | 1014.1 |
| 20260502054531 | 27 | 132 | 16.1 | 22.5 | 0.00 | 0.00 | 0.00 | 80 | 1014.2 |
| 20260502054027 | 27 | 158 | 8.0 | 11.3 | 0.00 | 0.00 | 0.00 | 80 | 1014.3 |
| 20260502053524 | 27 | 138 | 6.4 | 11.3 | 0.00 | 0.00 | 0.00 | 80 | 1014.2 |
| 20260502053022 | 27 | 142 | 8.0 | 11.3 | 0.00 | 0.00 | 0.00 | 81 | 1014.5 |
| 20260502052521 | 27 | 123 | 4.8 | 9.7 | 0.00 | 0.00 | 0.00 | 81 | 1014.6 |
| 20260502052018 | 27 | 128 | 8.0 | 9.7 | 0.00 | 0.00 | 0.00 | 82 | 1014.4 |
| 20260502051516 | 27 | 164 | 8.0 | 12.9 | 0.00 | 0.00 | 0.00 | 81 | 1014.5 |
| 20260502051014 | 27 | 156 | 14.5 | 16.1 | 0.00 | 0.00 | 0.00 | 81 | 1014.7 |
| 20260502050510 | 27 | 130 | 11.3 | 14.5 | 0.00 | 0.00 | 0.00 | 80 | 1014.7 |
| 20260502050007 | 27 | 151 | 11.3 | 12.9 | 0.00 | 0.00 | 0.00 | 80 | 1014.8 |
| 20260502045503 | 27 | 133 | 4.8 | 4.8 | 0.00 | 0.00 | 0.00 | 80 | 1014.9 |
| 20260502045001 | 27 | 140 | 4.8 | 4.8 | 0.00 | 0.00 | 0.00 | 80 | 1014.9 |
| 20260502044456 | 27 | 148 | 8.0 | 9.7 | 0.00 | 0.00 | 0.00 | 80 | 1014.8 |
| 20260502043953 | 27 | 132 | 9.7 | 11.3 | 0.00 | 0.00 | 0.00 | 80 | 1014.7 |
| 20260502043451 | 27 | 167 | 4.8 | 8.0 | 0.00 | 0.00 | 0.00 | 81 | 1014.9 |
| 20260502042950 | 27 | 119 | 8.0 | 12.9 | 0.00 | 0.00 | 0.00 | 81 | 1015.1 |
| 20260502042447 | 27 | 145 | 6.4 | 8.0 | 0.00 | 0.00 | 0.00 | 82 | 1015.1 |
| 20260502041945 | 27 | 116 | 8.0 | 12.9 | 0.00 | 0.00 | 0.00 | 83 | 1014.9 |
| 20260502041443 | 27 | 108 | 3.2 | 3.2 | 0.00 | 0.00 | 0.00 | 83 | 1014.9 |
| 20260502040939 | 27 | 109 | 3.2 | 3.2 | 0.00 | 0.00 | 0.00 | 82 | 1015.0 |
| 20260502040436 | 27 | 163 | 8.0 | 9.7 | 0.00 | 0.00 | 0.00 | 82 | 1015.1 |
| 20260502035932 | 27 | 166 | 4.8 | 4.8 | 0.00 | 0.00 | 0.00 | 82 | 1015.1 |
| 20260502035428 | 27 | 138 | 8.0 | 11.3 | 0.00 | 0.00 | 0.00 | 82 | 1015.1 |
| 20260502034926 | 27 | 143 | 6.4 | 9.7 | 0.00 | 0.00 | 0.00 | 81 | 1014.9 |
| 20260502034425 | 27 | 119 | 11.3 | 12.9 | 0.00 | 0.00 | 0.00 | 81 | 1014.9 |
| 20260502033923 | 27 | 132 | 8.0 | 9.7 | 0.00 | 0.00 | 0.00 | 81 | 1014.8 |
| 20260502033420 | 27 | 107 | 4.8 | 4.8 | 0.00 | 0.00 | 0.00 | 81 | 1014.8 |
| 20260502032917 | 27 | 105 | 3.2 | 4.8 | 0.00 | 0.00 | 0.00 | 80 | 1014.8 |
| 20260502032413 | 27 | 125 | 6.4 | 8.0 | 0.00 | 0.00 | 0.00 | 79 | 1014.7 |
| 20260502031910 | 27 | 122 | 8.0 | 12.9 | 0.00 | 0.00 | 0.00 | 78 | 1014.9 |
| 20260502031409 | 27 | 105 | 4.8 | 4.8 | 0.00 | 0.00 | 0.00 | 78 | 1014.9 |
| 20260502030907 | 27 | 125 | 1.6 | 1.6 | 0.00 | 0.00 | 0.00 | 78 | 1014.7 |
| 20260502030404 | 27 | 83 | 12.9 | 14.5 | 0.00 | 0.00 | 0.00 | 78 | 1014.7 |
| 20260502025903 | 27 | 95 | 4.8 | 4.8 | 0.00 | 0.00 | 0.00 | 78 | 1014.9 |
| 20260502025359 | 27 | 153 | 6.4 | 8.0 | 0.00 | 0.00 | 0.00 | 77 | 1014.7 |
| 20260502024857 | 27 | 128 | 6.4 | 9.7 | 0.00 | 0.00 | 0.00 | 77 | 1014.9 |
| 20260502024355 | 27 | 112 | 4.8 | 4.8 | 0.00 | 0.00 | 0.00 | 77 | 1014.7 |
| 20260502023852 | 27 | 121 | 4.8 | 8.0 | 0.00 | 0.00 | 0.00 | 77 | 1014.7 |
| 20260502023350 | 27 | 144 | 8.0 | 11.3 | 0.00 | 0.00 | 0.00 | 77 | 1014.6 |
| 20260502022848 | 27 | 160 | 8.0 | 9.7 | 0.00 | 0.00 | 0.00 | 76 | 1014.9 |
| 20260502022343 | 27 | 131 | 3.2 | 4.8 | 0.00 | 0.00 | 0.00 | 77 | 1014.6 |
| 20260502021840 | 27 | 129 | 9.7 | 11.3 | 0.00 | 0.00 | 0.00 | 76 | 1014.8 |
| 20260502021338 | 27 | 128 | 4.8 | 4.8 | 0.00 | 0.00 | 0.00 | 75 | 1014.8 |
| 20260502020835 | 27 | 96 | 1.6 | 3.2 | 0.00 | 0.00 | 0.00 | 75 | 1014.5 |
| 20260502020333 | 27 | 105 | 9.7 | 11.3 | 0.00 | 0.00 | 0.00 | 75 | 1014.4 |
| 20260502015829 | 27 | 137 | 8.0 | 11.3 | 0.00 | 0.00 | 0.00 | 75 | 1014.3 |
| 20260502015326 | 27 | 117 | 8.0 | 12.9 | 0.00 | 0.00 | 0.00 | 76 | 1014.2 |
| 20260502014824 | 27 | 80 | 6.4 | 9.7 | 0.00 | 0.00 | 0.00 | 76 | 1014.3 |
| 20260502014321 | 27 | 115 | 4.8 | 4.8 | 0.00 | 0.00 | 0.00 | 75 | 1014.2 |